Home   Weather   Valparaíso   Past weeks

Flag for Chile Past Weather in Valparaíso, Chile — Yesterday and Last 2 Weeks

Now
57 °F

Passing clouds.


Feels Like: 55 °F
Forecast: 59 / 66 °F
Wind: 8 mph from Southeast

Location: Pudahuel

Current Time: Dec 4, 2016 at 3:16:20 am

Latest Report: Dec 4, 2016 at 3:00 am


Visibility: N/A

Pressure: 29.98 "Hg

Humidity: 88%

Dew Point: 54 °F

Location of ValparaísoLocation

Past Weather in Valparaíso — Graph

°F

Valparaíso Temperature Yesterday

Maximum temperature yesterday: 84 °F (at 3:00 pm)
Minimum temperature yesterday: 55 °F (at 4:00 am)
Average temperature yesterday: 67 °F

High & Low Weather Summary for the Past Weeks

 TemperatureHumidityPressure
High93 °F (Nov 29, 4:00 pm)100% (Dec 3, 7:00 am)30.12 "Hg (Dec 3, 7:00 am)
Low50 °F (Nov 26, 7:00 am)16% (Nov 28, 4:00 pm)29.80 "Hg (Nov 29, 3:00 pm)
Average66 °F58%29.96 "Hg
* Reported Nov 19 2:00 am — Dec 4 2:00 am, Valparaíso, Weather by CustomWeather, © 2016

Note: Actual official high and low records may vary slightly from our data, if they occured in-between our weather recording intervals... More about our weather records

Advertising

Valparaíso Weather History for the Previous 24 Hours

Scroll right to see more
 ConditionsComfort  
Time TempWeatherWind HumidityBarometerVisibility
2:00 am
Sun, Dec 4
57 °FClear.8 mph88%29.98 "Hg5 mi
1:00 am57 °FClear.8 mph82%29.98 "Hg10 mi
12:00 am59 °FClear.7 mph82%30.01 "Hg10 mi
11:00 pm
Sat, Dec 3
61 °FClear.10 mph77%29.98 "Hg10 mi
10:00 pm63 °FClear.12 mph73%29.98 "Hg10 mi
9:00 pm66 °FPassing clouds.12 mph64%29.98 "HgN/A
8:00 pm70 °FSunny.13 mph57%29.95 "Hg10 mi
7:00 pm73 °FSunny.17 mph50%29.92 "Hg10 mi
6:00 pm79 °FSunny.15 mph45%29.92 "Hg10 mi
5:00 pm81 °FPassing clouds.15 mph42%29.92 "HgN/A
4:00 pm82 °FSunny.14 mph42%29.95 "Hg10 mi
3:00 pm84 °FPassing clouds.15 mph37%29.95 "HgN/A
2:00 pm81 °FSunny.18 mph42%29.95 "Hg10 mi
1:00 pm79 °FPassing clouds.13 mph45%29.95 "HgN/A
12:00 pm75 °FPassing clouds.7 mph50%29.98 "HgN/A
11:00 am72 °FClear.5 mph57%29.98 "Hg5 mi
10:00 am64 °FClear.3 mph73%29.98 "Hg4 mi
9:00 am61 °FScattered clouds.1 mph77%29.98 "Hg2 mi
8:00 am57 °FFog.3 mph88%29.98 "Hg2 mi
7:00 am55 °FFog.2 mph100%29.98 "Hg1 mi
6:00 am55 °FFog.6 mph94%29.98 "Hg1 mi
5:00 am55 °FFog.7 mph94%29.98 "Hg2 mi
4:00 am55 °FFog.8 mph94%29.98 "Hg3 mi
3:00 am57 °FClear.5 mph88%29.98 "Hg5 mi
Weather by CustomWeather, © 2016

See weather overviewHow to use our weather pages